Location: ???? ?????????
(31.1304°N, 31.7111°E)
Time: 23:20:12
(UTC+00:00)

Envisat - Visible Passes

Search period start: 22 January 2021 00:00
Search period end: 01 February 2021 00:00
Orbit: 764 x 766 km, 98.1° (Epoch: 22 January)

Date Brightness Start Highest point End Pass type
(mag) Time Alt. Az. Time Alt. Az. Time Alt. Az.
22 Jan 4.0 03:11:29 10° NNE 03:16:24 49° E 03:21:17 10° S visible
22 Jan 6.0 16:00:58 10° SW 16:04:31 19° W 16:08:04 10° NW visible
23 Jan 5.6 02:35:47 10° NE 02:39:27 20° E 02:43:05 10° SE visible
23 Jan 3.5 04:13:52 10° N 04:18:29 36° WNW 04:23:04 10° SW visible
24 Jan 2.9 03:36:42 10° NNE 03:41:48 88° WNW 03:46:53 10° SSW visible
25 Jan 4.5 03:00:17 10° NNE 03:04:58 37° E 03:09:38 10° SSE visible
25 Jan 5.7 15:48:56 10° SSW 15:53:02 25° W 15:57:10 10° NW visible
26 Jan 5.9 02:25:06 10° ENE 02:27:58 15° E 02:30:48 10° SE visible
26 Jan 3.2 04:02:17 10° N 04:07:07 46° WNW 04:11:57 10° SW visible
27 Jan 3.3 03:25:20 10° NNE 03:30:24 71° ESE 03:35:27 10° S visible
27 Jan 6.3 16:16:22 10° WSW 16:18:37 13° W 16:20:53 10° WNW visible
28 Jan 5.0 02:49:09 10° NE 02:53:31 28° E 02:57:51 10° SSE visible
29 Jan 6.2 02:15:04 10° ENE 02:16:27 11° E 02:17:50 10° ESE visible
29 Jan 3.0 03:50:45 10° N 03:55:45 61° WNW 04:00:45 10° SSW visible
30 Jan 3.8 03:14:01 10° NNE 03:18:59 54° E 03:23:56 10° S visible
30 Jan 6.1 16:03:50 10° SW 16:07:07 17° W 16:10:25 10° NW visible
31 Jan 5.4 02:38:10 10° NE 02:42:02 22° E 02:45:54 10° SE visible
31 Jan 3.7 04:16:32 10° N 04:21:01 32° WNW 04:25:30 10° SW visible
